Time,TemperatureF,DewpointF,PressureIn,WindDirection,WindDirectionDegrees,WindSpeedMPH,WindSpeedGustMPH,Humidity,HourlyPrecipIn,Conditions,Clouds,dailyrainin,SoftwareType,DateUTC
2013-10-18 00:01:00,47.8,43.5,29.86,North,0,0.0,1.2,85,0.00,RA,,0.00,WeatherDisplay:10.37,2013-10-18 04:01:00,
2013-10-18 00:06:00,47.8,43.5,29.87,North,0,0.0,1.2,85,0.00,RA,,0.00,WeatherDisplay:10.37,2013-10-18 04:06:00,
2013-10-18 00:11:00,47.3,43.3,29.87,North,0,0.0,0.0,86,0.00,CLR,,0.00,WeatherDisplay:10.37,2013-10-18 04:11:00,
2013-10-18 00:16:00,47.1,43.1,29.87,North,0,0.0,0.0,86,0.00,CLR,,0.00,WeatherDisplay:10.37,2013-10-18 04:16:00,
2013-10-18 00:21:00,46.8,42.8,29.87,North,0,0.0,1.2,86,0.00,CLR,,0.00,WeatherDisplay:10.37,2013-10-18 04:21:00,
2013-10-18 00:26:00,46.4,42.4,29.87,South,180,0.0,0.0,86,0.00,CLR,,0.00,WeatherDisplay:10.37,2013-10-18 04:26:00,
2013-10-18 00:31:00,46.0,42.1,29.88,SE,135,0.0,1.2,86,0.00,CLR,,0.00,WeatherDisplay:10.37,2013-10-18 04:31:00,
2013-10-18 00:36:00,45.7,42.3,29.88,SE,135,0.0,0.0,88,0.00,CLR,,0.00,WeatherDisplay:10.37,2013-10-18 04:36:00,
2013-10-18 00:41:00,45.5,42.4,29.88,SE,135,0.0,0.0,89,0.00,CLR,,0.00,WeatherDisplay:10.37,2013-10-18 04:41:00,
2013-10-18 00:46:00,45.1,42.7,29.88,SE,135,0.0,0.0,91,0.00,CLR,,0.00,WeatherDisplay:10.37,2013-10-18 04:46:00,
2013-10-18 00:51:00,45.0,42.5,29.88,SE,135,0.0,0.0,91,0.00,CLR,,0.00,WeatherDisplay:10.37,2013-10-18 04:51:00,
2013-10-18 00:56:00,45.0,42.8,29.88,SE,135,0.0,0.0,92,0.00,CLR,,0.00,WeatherDisplay:10.37,2013-10-18 04:56:00,
2013-10-18 01:01:00,44.8,42.9,29.88,South,180,0.0,0.0,93,0.00,CLR,,0.00,WeatherDisplay:10.37,2013-10-18 05:01:00,
2013-10-18 01:06:00,44.8,43.2,29.89,SW,225,0.0,0.0,94,0.00,CLR,,0.00,WeatherDisplay:10.37,2013-10-18 05:06:00,
2013-10-18 01:11:00,44.6,43.0,29.89,SE,135,0.0,0.0,94,0.00,CLR,,0.00,WeatherDisplay:10.37,2013-10-18 05:11:00,
2013-10-18 01:16:00,44.6,43.3,29.89,SE,135,0.0,0.0,95,0.00,CLR,,0.00,WeatherDisplay:10.37,2013-10-18 05:16:00,
2013-10-18 01:21:00,44.6,43.3,29.89,SE,135,0.0,0.0,95,0.00,CLR,,0.00,WeatherDisplay:10.37,2013-10-18 05:21:00,
2013-10-18 01:26:00,44.4,43.4,29.89,ESE,112,0.0,0.0,96,0.00,CLR,,0.00,WeatherDisplay:10.37,2013-10-18 05:26:00,
2013-10-18 01:31:00,44.4,43.6,29.90,ESE,112,0.0,0.0,97,0.00,CLR,,0.00,WeatherDisplay:10.37,2013-10-18 05:31:00,
2013-10-18 01:36:00,44.2,43.4,29.90,SE,135,0.0,0.0,97,0.00,CLR,,0.00,WeatherDisplay:10.37,2013-10-18 05:36:00,
2013-10-18 01:41:00,44.2,43.4,29.90,SE,135,0.0,0.0,97,0.00,CLR,,0.00,WeatherDisplay:10.37,2013-10-18 05:41:00,
2013-10-18 01:46:00,44.1,43.3,29.90,SE,135,0.0,0.0,97,0.00,CLR,,0.00,WeatherDisplay:10.37,2013-10-18 05:46:00,
2013-10-18 01:51:00,44.1,43.3,29.91,SE,135,0.0,0.0,97,0.00,CLR,,0.00,WeatherDisplay:10.37,2013-10-18 05:51:00,
2013-10-18 01:56:00,44.1,43.3,29.90,SE,135,0.0,0.0,97,0.00,CLR,,0.00,WeatherDisplay:10.37,2013-10-18 05:56:00,
2013-10-18 02:01:00,44.1,43.3,29.90,SE,135,0.0,0.0,97,0.00,CLR,,0.00,WeatherDisplay:10.37,2013-10-18 06:01:00,
2013-10-18 02:06:00,44.1,43.3,29.90,SE,135,0.0,0.0,97,0.00,CLR,,0.00,WeatherDisplay:10.37,2013-10-18 06:06:00,
2013-10-18 02:11:00,43.7,43.2,29.90,SE,135,0.0,0.0,98,0.00,CLR,,0.00,WeatherDisplay:10.37,2013-10-18 06:11:00,
2013-10-18 02:16:00,43.5,43.0,29.89,SE,135,0.9,1.2,98,0.00,CLR,,0.00,WeatherDisplay:10.37,2013-10-18 06:16:00,
2013-10-18 02:21:00,43.5,43.0,29.90,SE,135,0.0,2.3,98,0.00,CLR,,0.00,WeatherDisplay:10.37,2013-10-18 06:21:00,
2013-10-18 02:26:00,43.5,43.0,29.90,SE,135,0.9,2.3,98,0.00,CLR,,0.00,WeatherDisplay:10.37,2013-10-18 06:26:00,
2013-10-18 02:31:00,43.3,42.8,29.90,SE,135,0.0,1.2,98,0.00,CLR,,0.00,WeatherDisplay:10.37,2013-10-18 06:31:00,
2013-10-18 02:36:00,43.3,42.8,29.89,SE,135,0.0,1.2,98,0.00,CLR,,0.00,WeatherDisplay:10.37,2013-10-18 06:36:00,
2013-10-18 02:41:00,43.2,42.6,29.90,SE,135,0.0,0.0,98,0.00,CLR,,0.00,WeatherDisplay:10.37,2013-10-18 06:41:00,
2013-10-18 02:46:00,43.2,42.6,29.89,SE,135,0.0,0.0,98,0.00,CLR,,0.00,WeatherDisplay:10.37,2013-10-18 06:46:00,
2013-10-18 02:51:00,43.2,42.6,29.89,SE,135,0.0,0.0,98,0.00,CLR,,0.00,WeatherDisplay:10.37,2013-10-18 06:51:00,
2013-10-18 02:56:00,42.8,42.3,29.90,SE,135,0.0,0.0,98,0.00,CLR,,0.00,WeatherDisplay:10.37,2013-10-18 06:56:00,
2013-10-18 03:01:00,42.6,42.4,29.89,SE,135,0.0,1.2,99,0.00,,,0.00,WeatherDisplay:10.37,2013-10-18 07:01:00,
2013-10-18 03:06:00,42.4,42.2,29.89,SE,135,0.0,0.0,99,0.00,,,0.00,WeatherDisplay:10.37,2013-10-18 07:06:00,
2013-10-18 03:11:00,42.4,42.2,29.89,ESE,112,0.0,1.2,99,0.00,,,0.00,WeatherDisplay:10.37,2013-10-18 07:11:00,
2013-10-18 03:16:00,42.4,42.2,29.89,ESE,112,0.0,0.0,99,0.00,,,0.00,WeatherDisplay:10.37,2013-10-18 07:16:00,
2013-10-18 03:21:00,42.3,42.0,29.89,East,90,0.0,0.0,99,0.00,,,0.00,WeatherDisplay:10.37,2013-10-18 07:21:00,
2013-10-18 03:26:00,42.1,41.8,29.89,East,90,0.0,1.2,99,0.00,,,0.00,WeatherDisplay:10.37,2013-10-18 07:26:00,
2013-10-18 03:31:00,42.1,41.8,29.89,East,90,0.0,0.0,99,0.00,,,0.00,WeatherDisplay:10.37,2013-10-18 07:31:00,
2013-10-18 03:36:00,42.1,41.8,29.88,East,90,0.0,1.2,99,0.00,,,0.00,WeatherDisplay:10.37,2013-10-18 07:36:00,
2013-10-18 03:42:00,42.1,41.8,29.88,East,90,0.0,0.0,99,0.00,,,0.00,WeatherDisplay:10.37,2013-10-18 07:42:00,
2013-10-18 03:47:00,41.9,41.6,29.89,East,90,0.0,0.0,99,0.00,,,0.00,WeatherDisplay:10.37,2013-10-18 07:47:00,
2013-10-18 03:52:00,41.9,41.6,29.88,East,90,0.0,0.0,99,0.00,,,0.00,WeatherDisplay:10.37,2013-10-18 07:52:00,
2013-10-18 03:57:00,41.7,41.5,29.89,East,90,0.0,0.0,99,0.00,,,0.00,WeatherDisplay:10.37,2013-10-18 07:57:00,
2013-10-18 04:02:00,41.7,41.5,29.88,East,90,0.0,0.0,99,0.00,,,0.00,WeatherDisplay:10.37,2013-10-18 08:02:00,
2013-10-18 04:07:00,41.5,41.3,29.88,East,90,0.0,0.0,99,0.00,,,0.00,WeatherDisplay:10.37,2013-10-18 08:07:00,
2013-10-18 04:12:00,41.4,41.1,29.88,East,90,0.0,0.0,99,0.00,,,0.00,WeatherDisplay:10.37,2013-10-18 08:12:00,
2013-10-18 04:17:00,41.2,40.9,29.88,East,90,0.0,0.0,99,0.00,,,0.00,WeatherDisplay:10.37,2013-10-18 08:17:00,
2013-10-18 04:22:00,41.2,40.9,29.88,East,90,0.0,0.0,99,0.00,,,0.00,WeatherDisplay:10.37,2013-10-18 08:22:00,
2013-10-18 04:27:00,41.0,40.7,29.88,East,90,0.0,1.2,99,0.00,,,0.00,WeatherDisplay:10.37,2013-10-18 08:27:00,
2013-10-18 04:32:00,41.0,40.7,29.88,East,90,0.0,2.3,99,0.00,,,0.00,WeatherDisplay:10.37,2013-10-18 08:32:00,
2013-10-18 04:37:00,41.0,40.7,29.88,East,90,0.9,2.3,99,0.00,,,0.00,WeatherDisplay:10.37,2013-10-18 08:37:00,
2013-10-18 04:42:00,41.0,40.7,29.88,East,90,0.9,2.3,99,0.00,,,0.00,WeatherDisplay:10.37,2013-10-18 08:42:00,
2013-10-18 04:47:00,40.8,40.6,29.88,East,90,2.0,2.3,99,0.00,,,0.00,WeatherDisplay:10.37,2013-10-18 08:47:00,
2013-10-18 04:52:00,40.6,40.4,29.88,East,90,2.0,2.3,99,0.00,,,0.00,WeatherDisplay:10.37,2013-10-18 08:52:00,
2013-10-18 04:57:00,40.6,40.4,29.88,East,90,0.9,2.3,99,0.00,,,0.00,WeatherDisplay:10.37,2013-10-18 08:57:00,
2013-10-18 05:02:00,40.5,40.2,29.88,East,90,0.9,2.3,99,0.00,,,0.00,WeatherDisplay:10.37,2013-10-18 09:02:00,
2013-10-18 05:07:00,40.5,40.2,29.88,East,90,0.9,2.3,99,0.00,,,0.00,WeatherDisplay:10.37,2013-10-18 09:07:00,
2013-10-18 05:12:00,40.3,40.0,29.88,East,90,2.0,2.3,99,0.00,,,0.00,WeatherDisplay:10.37,2013-10-18 09:12:00,
2013-10-18 05:17:00,40.1,39.8,29.88,East,90,0.9,2.3,99,0.00,,,0.00,WeatherDisplay:10.37,2013-10-18 09:17:00,
2013-10-18 05:22:00,40.1,39.8,29.88,East,90,2.0,2.8,99,0.00,,,0.00,WeatherDisplay:10.37,2013-10-18 09:22:00,
2013-10-18 05:27:00,40.1,39.8,29.88,East,90,2.0,2.3,99,0.00,,,0.00,WeatherDisplay:10.37,2013-10-18 09:27:00,
2013-10-18 05:32:00,39.9,39.7,29.87,East,90,0.9,3.5,99,0.00,,,0.00,WeatherDisplay:10.37,2013-10-18 09:32:00,
2013-10-18 05:37:00,39.9,39.7,29.88,East,90,2.0,2.3,99,0.00,,,0.00,WeatherDisplay:10.37,2013-10-18 09:37:00,
2013-10-18 05:42:00,39.9,39.7,29.88,East,90,0.9,2.3,99,0.00,,,0.00,WeatherDisplay:10.37,2013-10-18 09:42:00,
2013-10-18 05:47:00,39.7,39.5,29.88,East,90,2.0,2.8,99,0.00,,,0.00,WeatherDisplay:10.37,2013-10-18 09:47:00,
2013-10-18 05:52:00,39.7,39.5,29.87,East,90,2.0,3.5,99,0.00,,,0.00,WeatherDisplay:10.37,2013-10-18 09:52:00,
2013-10-18 05:57:00,39.7,39.5,29.88,East,90,2.0,3.5,99,0.00,,,0.00,WeatherDisplay:10.37,2013-10-18 09:57:00,
2013-10-18 06:02:00,39.7,39.5,29.88,East,90,0.0,2.3,99,0.00,,,0.00,WeatherDisplay:10.37,2013-10-18 10:02:00,
2013-10-18 06:07:00,39.7,39.5,29.88,East,90,0.9,2.3,99,0.00,,,0.00,WeatherDisplay:10.37,2013-10-18 10:07:00,
2013-10-18 06:12:00,39.9,39.7,29.88,NE,45,2.0,4.0,99,0.00,,,0.00,WeatherDisplay:10.37,2013-10-18 10:12:00,
2013-10-18 06:17:00,39.9,39.7,29.88,NE,45,2.0,2.3,99,0.00,,,0.00,WeatherDisplay:10.37,2013-10-18 10:17:00,
2013-10-18 06:22:00,39.9,39.7,29.87,East,90,0.9,2.3,99,0.00,,,0.00,WeatherDisplay:10.37,2013-10-18 10:22:00,
2013-10-18 06:27:00,39.9,39.7,29.88,East,90,2.0,3.5,99,0.00,,,0.00,WeatherDisplay:10.37,2013-10-18 10:27:00,
2013-10-18 06:32:00,39.7,39.5,29.87,East,90,2.0,3.5,99,0.00,,,0.00,WeatherDisplay:10.37,2013-10-18 10:32:00,
2013-10-18 06:37:00,39.7,39.5,29.87,East,90,2.0,5.8,99,0.00,,,0.00,WeatherDisplay:10.37,2013-10-18 10:37:00,
2013-10-18 06:42:00,39.7,39.5,29.88,East,90,2.8,4.6,99,0.00,,,0.00,WeatherDisplay:10.37,2013-10-18 10:42:00,
2013-10-18 06:47:00,39.7,39.5,29.87,East,90,0.9,2.3,99,0.00,,,0.00,WeatherDisplay:10.37,2013-10-18 10:47:00,
2013-10-18 06:52:00,39.7,39.5,29.87,East,90,0.9,3.5,99,0.00,,,0.00,WeatherDisplay:10.37,2013-10-18 10:52:00,
2013-10-18 06:57:00,39.7,39.5,29.88,SE,135,4.0,4.0,99,0.00,,,0.00,WeatherDisplay:10.37,2013-10-18 10:57:00,
2013-10-18 07:02:00,39.9,39.7,29.88,SE,135,2.0,3.5,99,0.00,,,0.00,WeatherDisplay:10.37,2013-10-18 11:02:00,
2013-10-18 07:07:00,40.1,39.8,29.88,SE,135,0.9,4.6,99,0.00,,,0.00,WeatherDisplay:10.37,2013-10-18 11:07:00,
2013-10-18 07:12:00,40.1,39.8,29.88,SE,135,4.0,5.8,99,0.00,,,0.00,WeatherDisplay:10.37,2013-10-18 11:12:00,
2013-10-18 07:17:00,40.3,40.0,29.88,SE,135,2.8,5.8,99,0.00,,,0.00,WeatherDisplay:10.37,2013-10-18 11:17:00,
2013-10-18 07:22:00,40.5,40.2,29.88,East,90,2.0,3.5,99,0.00,,,0.00,WeatherDisplay:10.37,2013-10-18 11:22:00,
2013-10-18 07:27:00,40.5,40.2,29.88,SE,135,4.0,4.6,99,0.00,,,0.00,WeatherDisplay:10.37,2013-10-18 11:27:00,
2013-10-18 07:32:00,40.5,40.2,29.88,SE,135,4.0,4.6,99,0.00,,,0.00,WeatherDisplay:10.37,2013-10-18 11:32:00,
2013-10-18 07:37:00,40.5,40.2,29.88,SE,135,2.8,2.8,99,0.00,,,0.00,WeatherDisplay:10.37,2013-10-18 11:37:00,
2013-10-18 07:42:00,40.5,40.2,29.88,SE,135,4.8,8.1,99,0.00,,,0.00,WeatherDisplay:10.37,2013-10-18 11:42:00,
2013-10-18 07:47:00,40.5,40.2,29.88,SE,135,4.0,4.6,99,0.00,,,0.00,WeatherDisplay:10.37,2013-10-18 11:47:00,
2013-10-18 07:52:00,40.5,40.2,29.89,SE,135,2.8,5.8,99,0.00,,,0.00,WeatherDisplay:10.37,2013-10-18 11:52:00,
2013-10-18 07:57:00,40.5,40.2,29.89,SE,135,2.8,4.6,99,0.00,,,0.00,WeatherDisplay:10.37,2013-10-18 11:57:00,
2013-10-18 08:02:00,40.5,40.2,29.89,SE,135,2.8,4.6,99,0.00,,,0.00,WeatherDisplay:10.37,2013-10-18 12:02:00,
2013-10-18 08:07:00,40.5,40.2,29.89,SE,135,2.0,4.6,99,0.00,,,0.00,WeatherDisplay:10.37,2013-10-18 12:07:00,
2013-10-18 08:12:00,40.6,40.4,29.90,SE,135,0.9,2.3,99,0.00,,,0.00,WeatherDisplay:10.37,2013-10-18 12:12:00,
2013-10-18 08:17:00,40.5,40.2,29.90,SE,135,0.0,2.3,99,0.00,,,0.00,WeatherDisplay:10.37,2013-10-18 12:17:00,
2013-10-18 08:22:00,40.5,40.2,29.90,SE,135,2.0,3.5,99,0.00,,,0.00,WeatherDisplay:10.37,2013-10-18 12:22:00,
2013-10-18 08:27:00,40.3,40.0,29.90,SE,135,2.0,5.8,99,0.00,,,0.00,WeatherDisplay:10.37,2013-10-18 12:27:00,
2013-10-18 08:32:00,40.5,40.2,29.91,SE,135,0.9,2.3,99,0.00,,,0.00,WeatherDisplay:10.37,2013-10-18 12:32:00,
2013-10-18 08:37:00,40.5,40.2,29.91,SE,135,0.0,1.2,99,0.00,,,0.00,WeatherDisplay:10.37,2013-10-18 12:37:00,
2013-10-18 08:42:00,40.6,40.4,29.91,SE,135,0.0,0.0,99,0.00,,,0.00,WeatherDisplay:10.37,2013-10-18 12:42:00,
2013-10-18 08:47:00,40.8,40.6,29.90,SE,135,0.0,1.2,99,0.00,,,0.00,WeatherDisplay:10.37,2013-10-18 12:47:00,
2013-10-18 08:52:00,41.0,40.7,29.90,SE,135,0.9,2.3,99,0.00,,,0.00,WeatherDisplay:10.37,2013-10-18 12:52:00,
2013-10-18 08:57:00,41.2,40.9,29.90,SE,135,0.0,0.0,99,0.00,,,0.00,WeatherDisplay:10.37,2013-10-18 12:57:00,
2013-10-18 09:02:00,41.7,41.5,29.90,SE,135,0.0,1.2,99,0.00,,,0.00,WeatherDisplay:10.37,2013-10-18 13:02:00,
2013-10-18 09:07:00,42.3,42.0,29.90,South,180,0.0,0.0,99,0.00,,,0.00,WeatherDisplay:10.37,2013-10-18 13:07:00,
2013-10-18 09:12:00,42.8,42.3,29.90,SE,135,0.0,0.0,98,0.00,,,0.00,WeatherDisplay:10.37,2013-10-18 13:12:00,
2013-10-18 09:17:00,43.3,42.8,29.90,SE,135,0.0,0.0,98,0.00,CLR,,0.00,WeatherDisplay:10.37,2013-10-18 13:17:00,
2013-10-18 09:22:00,44.1,43.5,29.90,South,180,0.0,0.0,98,0.00,CLR,,0.00,WeatherDisplay:10.37,2013-10-18 13:22:00,
2013-10-18 09:27:00,44.8,44.0,29.90,South,180,0.0,1.2,97,0.00,CLR,,0.00,WeatherDisplay:10.37,2013-10-18 13:27:00,
2013-10-18 09:32:00,45.1,44.3,29.91,SE,135,0.0,0.0,97,0.00,CLR,,0.00,WeatherDisplay:10.37,2013-10-18 13:32:00,
2013-10-18 09:37:00,45.7,44.3,29.90,SE,135,0.0,0.0,95,0.00,CLR,,0.00,WeatherDisplay:10.37,2013-10-18 13:37:00,
2013-10-18 09:42:00,46.0,44.4,29.90,South,180,0.0,0.0,94,0.00,CLR,,0.00,WeatherDisplay:10.37,2013-10-18 13:42:00,
2013-10-18 09:47:00,46.6,44.7,29.91,SE,135,0.0,0.0,93,0.00,CLR,,0.00,WeatherDisplay:10.37,2013-10-18 13:47:00,
2013-10-18 09:52:00,46.9,44.4,29.90,SE,135,0.0,0.0,91,0.00,CLR,,0.00,WeatherDisplay:10.37,2013-10-18 13:52:00,
2013-10-18 09:58:00,47.3,44.5,29.90,SE,135,0.0,0.0,90,0.00,CLR,,0.00,WeatherDisplay:10.37,2013-10-18 13:58:00,
2013-10-18 10:03:00,47.8,44.8,29.90,ESE,112,0.0,0.0,89,0.00,CLR,,0.00,WeatherDisplay:10.37,2013-10-18 14:03:00,
2013-10-18 10:08:00,48.4,45.0,29.90,SE,135,0.0,0.0,88,0.00,CLR,,0.00,WeatherDisplay:10.37,2013-10-18 14:08:00,
2013-10-18 10:13:00,48.7,45.0,29.90,SE,135,0.0,0.0,87,0.00,CLR,,0.00,WeatherDisplay:10.37,2013-10-18 14:13:00,
2013-10-18 10:18:00,48.9,44.9,29.90,SE,135,0.0,0.0,86,0.00,CLR,,0.00,WeatherDisplay:10.37,2013-10-18 14:18:00,
2013-10-18 10:23:00,49.1,45.1,29.89,SE,135,0.0,0.0,86,0.00,CLR,,0.00,WeatherDisplay:10.37,2013-10-18 14:23:00,
2013-10-18 10:28:00,49.6,45.6,29.89,SE,135,0.0,0.0,86,0.00,CLR,,0.00,WeatherDisplay:10.37,2013-10-18 14:28:00,
2013-10-18 10:33:00,49.8,45.5,29.89,SE,135,0.0,0.0,85,0.00,CLR,,0.00,WeatherDisplay:10.37,2013-10-18 14:33:00,
2013-10-18 10:38:00,49.8,45.5,29.88,SE,135,0.0,0.0,85,0.00,CLR,,0.00,WeatherDisplay:10.37,2013-10-18 14:38:00,
2013-10-18 10:43:00,51.3,46.6,29.88,SW,225,0.0,0.0,84,0.00,CLR,,0.00,WeatherDisplay:10.37,2013-10-18 14:43:00,
2013-10-18 10:48:00,52.0,47.0,29.88,SW,225,0.0,0.0,83,0.00,CLR,,0.00,WeatherDisplay:10.37,2013-10-18 14:48:00,
2013-10-18 10:53:00,52.0,46.7,29.88,SW,225,0.0,0.0,82,0.00,CLR,,0.00,WeatherDisplay:10.37,2013-10-18 14:53:00,
2013-10-18 10:58:00,52.0,46.7,29.88,SW,225,0.0,0.0,82,0.00,CLR,,0.00,WeatherDisplay:10.37,2013-10-18 14:58:00,
2013-10-18 11:03:00,52.5,47.2,29.88,SW,225,0.0,0.0,82,0.00,CLR,,0.00,WeatherDisplay:10.37,2013-10-18 15:03:00,
2013-10-18 11:08:00,52.9,47.5,29.87,South,180,0.0,0.0,82,0.00,CLR,,0.00,WeatherDisplay:10.37,2013-10-18 15:08:00,
2013-10-18 11:13:00,53.8,48.1,29.87,SW,225,0.0,0.0,81,0.00,CLR,,0.00,WeatherDisplay:10.37,2013-10-18 15:13:00,
2013-10-18 11:18:00,54.0,47.6,29.86,SW,225,0.0,0.0,79,0.01,RA,,0.01,WeatherDisplay:10.37,2013-10-18 15:18:00,
2013-10-18 11:23:00,54.1,48.1,29.86,SW,225,0.0,0.0,80,0.01,RA,,0.01,WeatherDisplay:10.37,2013-10-18 15:23:00,
2013-10-18 11:28:00,54.9,49.1,29.86,SW,225,0.0,0.0,81,0.01,RA,,0.01,WeatherDisplay:10.37,2013-10-18 15:28:00,
2013-10-18 11:33:00,54.5,48.1,29.85,SW,225,0.0,0.0,79,0.01,CLR,,0.01,WeatherDisplay:10.37,2013-10-18 15:33:00,
2013-10-18 11:38:00,54.5,48.5,29.85,SW,225,0.0,0.0,80,0.01,CLR,,0.01,WeatherDisplay:10.37,2013-10-18 15:38:00,
2013-10-18 11:43:00,54.5,48.8,29.85,SW,225,0.0,0.0,81,0.01,CLR,,0.01,WeatherDisplay:10.37,2013-10-18 15:43:00,
2013-10-18 11:48:00,54.9,49.1,29.85,SW,225,0.0,0.0,81,0.01,CLR,,0.01,WeatherDisplay:10.37,2013-10-18 15:48:00,
2013-10-18 11:53:00,55.2,49.5,29.85,SE,135,0.0,0.0,81,0.01,CLR,,0.01,WeatherDisplay:10.37,2013-10-18 15:53:00,
2013-10-18 11:58:00,54.3,48.6,29.85,SE,135,0.0,0.0,81,0.01,CLR,,0.01,WeatherDisplay:10.37,2013-10-18 15:58:00,
2013-10-18 12:03:00,54.0,48.6,29.85,SE,135,0.0,0.0,82,0.01,CLR,,0.01,WeatherDisplay:10.37,2013-10-18 16:03:00,
2013-10-18 12:08:00,53.8,48.7,29.84,SSE,158,0.0,0.0,83,0.01,CLR,,0.01,WeatherDisplay:10.37,2013-10-18 16:08:00,
2013-10-18 12:13:00,54.0,48.9,29.83,South,180,0.0,0.0,83,0.01,CLR,,0.01,WeatherDisplay:10.37,2013-10-18 16:13:00,
2013-10-18 12:18:00,53.8,48.7,29.83,South,180,0.0,0.0,83,0.01,CLR,,0.01,WeatherDisplay:10.37,2013-10-18 16:18:00,
2013-10-18 12:23:00,53.4,48.4,29.83,South,180,0.0,0.0,83,0.00,CLR,,0.01,WeatherDisplay:10.37,2013-10-18 16:23:00,
2013-10-18 12:28:00,53.6,48.2,29.83,South,180,0.0,0.0,82,0.00,CLR,,0.01,WeatherDisplay:10.37,2013-10-18 16:28:00,
2013-10-18 12:33:00,54.0,48.6,29.83,South,180,0.0,0.0,82,0.00,CLR,,0.01,WeatherDisplay:10.37,2013-10-18 16:33:00,
2013-10-18 12:38:00,53.4,48.1,29.83,South,180,0.0,0.0,82,0.00,CLR,,0.01,WeatherDisplay:10.37,2013-10-18 16:38:00,
2013-10-18 12:43:00,53.6,48.2,29.82,South,180,0.0,0.0,82,0.00,CLR,,0.01,WeatherDisplay:10.37,2013-10-18 16:43:00,
2013-10-18 12:48:00,53.6,48.2,29.82,South,180,0.0,0.0,82,0.00,CLR,,0.01,WeatherDisplay:10.37,2013-10-18 16:48:00,
2013-10-18 12:53:00,53.6,48.2,29.82,South,180,0.0,0.0,82,0.00,CLR,,0.01,WeatherDisplay:10.37,2013-10-18 16:53:00,
2013-10-18 12:58:00,53.2,48.2,29.82,South,180,0.0,0.0,83,0.00,CLR,,0.01,WeatherDisplay:10.37,2013-10-18 16:58:00,
2013-10-18 13:03:00,53.1,48.0,29.82,SW,225,0.0,0.0,83,0.00,CLR,,0.01,WeatherDisplay:10.37,2013-10-18 17:03:00,
2013-10-18 13:08:00,53.4,48.4,29.82,SW,225,0.0,0.0,83,0.00,CLR,,0.01,WeatherDisplay:10.37,2013-10-18 17:08:00,
2013-10-18 13:13:00,53.6,48.2,29.82,NNW,338,0.0,0.0,82,0.00,CLR,,0.01,WeatherDisplay:10.37,2013-10-18 17:13:00,
2013-10-18 13:18:00,53.4,48.7,29.82,SE,135,0.0,0.0,84,0.00,CLR,,0.01,WeatherDisplay:10.37,2013-10-18 17:18:00,
2013-10-18 13:23:00,52.9,47.9,29.82,North,0,0.0,0.0,83,0.00,CLR,,0.01,WeatherDisplay:10.37,2013-10-18 17:23:00,
2013-10-18 13:28:00,52.9,48.2,29.81,North,0,0.0,0.0,84,0.00,CLR,,0.01,WeatherDisplay:10.37,2013-10-18 17:28:00,
2013-10-18 13:33:00,52.5,47.8,29.81,North,0,0.0,1.2,84,0.00,CLR,,0.01,WeatherDisplay:10.37,2013-10-18 17:33:00,
2013-10-18 13:35:00,52.7,48.0,29.81,North,0,0.9,2.3,84,0.00,CLR,,0.01,WeatherDisplay:10.37,2013-10-18 17:35:00,
2013-10-18 13:40:00,52.5,47.8,29.81,North,0,0.0,0.0,84,0.00,CLR,,0.01,WeatherDisplay:10.37,2013-10-18 17:40:00,
2013-10-18 13:45:00,52.0,47.3,29.81,North,0,0.0,0.0,84,0.00,CLR,,0.01,WeatherDisplay:10.37,2013-10-18 17:45:00,
2013-10-18 13:50:00,51.8,47.4,29.82,North,0,0.0,2.3,85,0.00,CLR,,0.01,WeatherDisplay:10.37,2013-10-18 17:50:00,
2013-10-18 13:55:00,51.6,47.9,29.82,North,0,0.9,3.5,87,0.00,CLR,,0.01,WeatherDisplay:10.37,2013-10-18 17:55:00,
2013-10-18 14:00:00,51.6,47.9,29.82,North,0,0.9,6.9,87,0.00,CLR,,0.01,WeatherDisplay:10.37,2013-10-18 18:00:00,
2013-10-18 14:05:00,51.4,47.7,29.82,North,0,4.8,6.9,87,0.00,CLR,,0.01,WeatherDisplay:10.37,2013-10-18 18:05:00,
2013-10-18 14:10:00,51.3,47.5,29.82,West,270,3.3,4.6,87,0.00,CLR,,0.01,WeatherDisplay:10.37,2013-10-18 18:10:00,
2013-10-18 14:15:00,51.3,47.5,29.82,West,270,4.7,8.1,87,0.00,CLR,,0.01,WeatherDisplay:10.37,2013-10-18 18:15:00,
2013-10-18 14:20:00,51.1,47.6,29.82,West,270,5.7,8.1,88,0.00,CLR,,0.01,WeatherDisplay:10.37,2013-10-18 18:20:00,
2013-10-18 14:25:00,50.9,47.8,29.83,SW,225,5.7,9.2,89,0.00,CLR,,0.01,WeatherDisplay:10.37,2013-10-18 18:25:00,
2013-10-18 14:30:00,50.7,47.6,29.83,South,180,3.3,5.8,89,0.00,CLR,,0.01,WeatherDisplay:10.37,2013-10-18 18:30:00,
2013-10-18 14:35:00,50.7,47.6,29.83,West,270,7.4,12.7,89,0.00,CLR,,0.01,WeatherDisplay:10.37,2013-10-18 18:35:00,
2013-10-18 14:40:00,50.4,47.2,29.84,West,270,4.7,10.4,89,0.00,CLR,,0.01,WeatherDisplay:10.37,2013-10-18 18:40:00,
2013-10-18 14:45:00,50.2,47.4,29.84,SW,225,4.0,12.7,90,0.00,CLR,,0.01,WeatherDisplay:10.37,2013-10-18 18:45:00,
2013-10-18 14:50:00,50.2,47.7,29.84,SW,225,5.7,7.4,91,0.00,CLR,,0.01,WeatherDisplay:10.37,2013-10-18 18:50:00,
2013-10-18 14:55:00,50.2,47.7,29.84,South,180,8.1,12.7,91,0.00,CLR,,0.01,WeatherDisplay:10.37,2013-10-18 18:55:00,
2013-10-18 15:00:00,50.2,47.7,29.84,WNW,292,8.8,12.7,91,0.00,CLR,,0.01,WeatherDisplay:10.37,2013-10-18 19:00:00,
2013-10-18 15:05:00,50.0,47.2,29.85,SW,225,4.7,11.5,90,0.00,CLR,,0.01,WeatherDisplay:10.37,2013-10-18 19:05:00,
2013-10-18 15:10:00,49.8,47.3,29.84,West,270,6.4,9.2,91,0.00,CLR,,0.01,WeatherDisplay:10.37,2013-10-18 19:10:00,
2013-10-18 15:15:00,49.6,47.4,29.85,West,270,2.4,9.2,92,0.00,CLR,,0.01,WeatherDisplay:10.37,2013-10-18 19:15:00,
2013-10-18 15:20:00,49.8,47.6,29.85,West,270,6.4,11.5,92,0.00,CLR,,0.01,WeatherDisplay:10.37,2013-10-18 19:20:00,
2013-10-18 15:25:00,49.6,47.4,29.85,SW,225,11.4,15.0,92,0.00,CLR,,0.01,WeatherDisplay:10.37,2013-10-18 19:25:00,
2013-10-18 15:30:00,49.6,47.4,29.85,West,270,4.7,12.7,92,0.00,CLR,,0.01,WeatherDisplay:10.37,2013-10-18 19:30:00,
2013-10-18 15:35:00,49.6,47.4,29.84,WSW,248,4.7,9.2,92,0.00,CLR,,0.01,WeatherDisplay:10.37,2013-10-18 19:35:00,
2013-10-18 15:40:00,49.6,47.4,29.84,South,180,5.7,12.7,92,0.00,CLR,,0.01,WeatherDisplay:10.37,2013-10-18 19:40:00,
2013-10-18 15:45:00,49.6,47.4,29.84,South,180,3.3,12.7,92,0.00,CLR,,0.01,WeatherDisplay:10.37,2013-10-18 19:45:00,
2013-10-18 15:50:00,49.6,47.1,29.84,SE,135,5.7,9.2,91,0.00,CLR,,0.01,WeatherDisplay:10.37,2013-10-18 19:50:00,
2013-10-18 15:55:00,49.6,47.1,29.84,West,270,6.4,12.7,91,0.00,CLR,,0.01,WeatherDisplay:10.37,2013-10-18 19:55:00,
2013-10-18 16:00:00,49.8,47.3,29.84,West,270,5.7,12.7,91,0.00,CLR,,0.01,WeatherDisplay:10.37,2013-10-18 20:00:00,
2013-10-18 16:05:00,49.8,47.0,29.84,SW,225,6.4,10.4,90,0.00,CLR,,0.01,WeatherDisplay:10.37,2013-10-18 20:05:00,
2013-10-18 16:10:00,50.0,46.6,29.84,SW,225,5.7,12.7,88,0.00,CLR,,0.01,WeatherDisplay:10.37,2013-10-18 20:10:00,
2013-10-18 16:15:00,50.0,46.6,29.84,West,270,6.4,11.5,88,0.00,CLR,,0.01,WeatherDisplay:10.37,2013-10-18 20:15:00,
2013-10-18 16:20:00,49.8,46.4,29.84,SW,225,4.7,9.2,88,0.00,CLR,,0.01,WeatherDisplay:10.37,2013-10-18 20:20:00,
2013-10-18 16:25:00,50.0,46.6,29.85,South,180,7.4,9.2,88,0.00,CLR,,0.01,WeatherDisplay:10.37,2013-10-18 20:25:00,
2013-10-18 16:30:00,50.0,46.3,29.85,SE,135,5.7,12.7,87,0.00,CLR,,0.01,WeatherDisplay:10.37,2013-10-18 20:30:00,
2013-10-18 16:35:00,50.0,46.3,29.85,SE,135,5.7,8.1,87,0.00,CLR,,0.01,WeatherDisplay:10.37,2013-10-18 20:35:00,
2013-10-18 16:40:00,50.0,46.3,29.85,SE,135,5.7,10.4,87,0.00,CLR,,0.01,WeatherDisplay:10.37,2013-10-18 20:40:00,
2013-10-18 16:45:00,49.8,46.4,29.85,SE,135,4.8,11.5,88,0.00,CLR,,0.01,WeatherDisplay:10.37,2013-10-18 20:45:00,
2013-10-18 16:50:00,49.8,46.4,29.86,SW,225,8.8,12.7,88,0.00,CLR,,0.01,WeatherDisplay:10.37,2013-10-18 20:50:00,
2013-10-18 16:55:00,50.0,46.0,29.86,SE,135,8.8,15.0,86,0.00,CLR,,0.01,WeatherDisplay:10.37,2013-10-18 20:55:00,
2013-10-18 17:00:00,50.0,45.7,29.86,SE,135,4.8,13.8,85,0.00,CLR,,0.01,WeatherDisplay:10.37,2013-10-18 21:00:00,
2013-10-18 17:05:00,50.0,45.0,29.86,South,180,6.4,16.1,83,0.00,CLR,,0.01,WeatherDisplay:10.37,2013-10-18 21:05:00,
2013-10-18 17:10:00,50.0,44.4,29.87,West,270,7.4,11.5,81,0.00,CLR,,0.01,WeatherDisplay:10.37,2013-10-18 21:10:00,
2013-10-18 17:15:00,50.0,44.7,29.87,South,180,6.4,9.2,82,0.00,CLR,,0.01,WeatherDisplay:10.37,2013-10-18 21:15:00,
2013-10-18 17:20:00,50.0,44.7,29.87,SW,225,8.8,12.7,82,0.00,CLR,,0.01,WeatherDisplay:10.37,2013-10-18 21:20:00,
2013-10-18 17:25:00,50.0,44.1,29.87,SW,225,4.0,11.5,80,0.00,CLR,,0.01,WeatherDisplay:10.37,2013-10-18 21:25:00,
2013-10-18 17:30:00,50.2,43.9,29.87,SW,225,5.7,9.2,79,0.00,CLR,,0.01,WeatherDisplay:10.37,2013-10-18 21:30:00,
2013-10-18 17:35:00,50.2,44.2,29.87,SW,225,4.0,16.1,80,0.00,CLR,,0.01,WeatherDisplay:10.37,2013-10-18 21:35:00,
2013-10-18 17:40:00,50.2,44.6,29.87,West,270,4.0,10.4,81,0.00,CLR,,0.01,WeatherDisplay:10.37,2013-10-18 21:40:00,
2013-10-18 17:45:00,50.2,44.2,29.87,South,180,4.0,6.9,80,0.00,CLR,,0.01,WeatherDisplay:10.37,2013-10-18 21:45:00,
2013-10-18 17:50:00,50.2,44.2,29.88,South,180,8.1,15.0,80,0.00,CLR,,0.01,WeatherDisplay:10.37,2013-10-18 21:50:00,
2013-10-18 17:55:00,50.2,43.9,29.88,SSW,202,6.4,15.0,79,0.00,CLR,,0.01,WeatherDisplay:10.37,2013-10-18 21:55:00,
2013-10-18 18:00:00,50.2,43.9,29.88,SW,225,7.4,11.5,79,0.00,CLR,,0.01,WeatherDisplay:10.37,2013-10-18 22:00:00,
2013-10-18 18:05:00,50.2,43.9,29.88,SW,225,7.4,11.5,79,0.00,CLR,,0.01,WeatherDisplay:10.37,2013-10-18 22:05:00,
2013-10-18 18:10:00,50.2,42.9,29.88,SE,135,6.8,12.7,76,0.00,CLR,,0.01,WeatherDisplay:10.37,2013-10-18 22:10:00,
2013-10-18 18:15:00,50.2,42.6,29.89,South,180,4.7,9.2,75,0.00,CLR,,0.01,WeatherDisplay:10.37,2013-10-18 22:15:00,
2013-10-18 18:20:00,50.2,42.6,29.89,South,180,4.0,12.7,75,0.00,CLR,,0.01,WeatherDisplay:10.37,2013-10-18 22:20:00,
2013-10-18 18:25:00,50.2,42.2,29.89,South,180,6.4,11.5,74,0.00,CLR,,0.01,WeatherDisplay:10.37,2013-10-18 22:25:00,
2013-10-18 18:30:00,50.2,42.2,29.90,SE,135,6.8,9.2,74,0.00,CLR,,0.01,WeatherDisplay:10.37,2013-10-18 22:30:00,
2013-10-18 18:35:00,50.2,42.2,29.90,SE,135,4.8,9.2,74,0.00,CLR,,0.01,WeatherDisplay:10.37,2013-10-18 22:35:00,
2013-10-18 18:40:00,50.2,42.2,29.91,SE,135,6.8,11.5,74,0.00,CLR,,0.01,WeatherDisplay:10.37,2013-10-18 22:40:00,
2013-10-18 18:45:00,50.2,42.6,29.91,SE,135,6.8,10.4,75,0.00,CLR,,0.01,WeatherDisplay:10.37,2013-10-18 22:45:00,
2013-10-18 18:50:00,50.0,42.4,29.91,SE,135,4.0,11.5,75,0.00,CLR,,0.01,WeatherDisplay:10.37,2013-10-18 22:50:00,
2013-10-18 18:55:00,50.0,42.4,29.91,South,180,4.7,12.7,75,0.00,CLR,,0.01,WeatherDisplay:10.37,2013-10-18 22:55:00,
2013-10-18 19:00:00,50.0,42.4,29.91,South,180,3.3,9.2,75,0.00,CLR,,0.01,WeatherDisplay:10.37,2013-10-18 23:00:00,
2013-10-18 19:05:00,50.0,42.0,29.91,South,180,8.1,9.7,74,0.00,CLR,,0.01,WeatherDisplay:10.37,2013-10-18 23:05:00,
2013-10-18 19:10:00,50.2,42.6,29.91,South,180,9.7,11.5,75,0.00,CLR,,0.01,WeatherDisplay:10.37,2013-10-18 23:10:00,
2013-10-18 19:15:00,50.2,42.6,29.91,South,180,8.1,15.0,75,0.00,CLR,,0.01,WeatherDisplay:10.37,2013-10-18 23:15:00,
2013-10-18 19:20:00,50.4,42.7,29.92,South,180,7.4,10.4,75,0.00,CLR,,0.01,WeatherDisplay:10.37,2013-10-18 23:20:00,
2013-10-18 19:25:00,50.4,42.7,29.92,South,180,4.0,4.6,75,0.00,CLR,,0.01,WeatherDisplay:10.37,2013-10-18 23:25:00,
2013-10-18 19:30:00,50.4,42.4,29.92,South,180,4.0,9.2,74,0.00,CLR,,0.01,WeatherDisplay:10.37,2013-10-18 23:30:00,
2013-10-18 19:35:00,50.2,42.6,29.92,South,180,4.7,11.5,75,0.00,CLR,,0.01,WeatherDisplay:10.37,2013-10-18 23:35:00,
2013-10-18 19:40:00,50.2,42.6,29.92,South,180,4.7,8.1,75,0.00,CLR,,0.01,WeatherDisplay:10.37,2013-10-18 23:40:00,
2013-10-18 19:45:00,50.2,42.6,29.93,South,180,5.7,9.2,75,0.00,CLR,,0.01,WeatherDisplay:10.37,2013-10-18 23:45:00,
2013-10-18 19:50:00,50.2,42.9,29.93,South,180,4.0,4.6,76,0.00,CLR,,0.01,WeatherDisplay:10.37,2013-10-18 23:50:00,
2013-10-18 19:55:00,50.2,42.9,29.93,South,180,4.7,6.9,76,0.00,CLR,,0.01,WeatherDisplay:10.37,2013-10-18 23:55:00,
2013-10-18 20:00:00,50.2,42.6,29.93,South,180,3.3,5.8,75,0.00,CLR,,0.01,WeatherDisplay:10.37,2013-10-19 00:00:00,
2013-10-18 20:05:00,50.2,42.6,29.93,South,180,3.3,5.8,75,0.00,CLR,,0.01,WeatherDisplay:10.37,2013-10-19 00:05:00,
2013-10-18 20:10:00,50.4,42.4,29.93,South,180,5.7,6.9,74,0.00,CLR,,0.01,WeatherDisplay:10.37,2013-10-19 00:10:00,
2013-10-18 20:15:00,50.4,42.0,29.93,South,180,4.0,8.1,73,0.00,CLR,,0.01,WeatherDisplay:10.37,2013-10-19 00:15:00,
2013-10-18 20:20:00,50.5,42.2,29.93,South,180,2.4,5.8,73,0.00,CLR,,0.01,WeatherDisplay:10.37,2013-10-19 00:20:00,
2013-10-18 20:25:00,50.5,42.2,29.93,South,180,2.4,4.6,73,0.00,CLR,,0.01,WeatherDisplay:10.37,2013-10-19 00:25:00,
2013-10-18 20:30:00,50.5,42.2,29.93,South,180,3.3,6.9,73,0.00,CLR,,0.01,WeatherDisplay:10.37,2013-10-19 00:30:00,
2013-10-18 20:35:00,50.5,42.6,29.94,South,180,4.7,9.2,74,0.00,CLR,,0.01,WeatherDisplay:10.37,2013-10-19 00:35:00,
2013-10-18 20:40:00,50.5,42.6,29.94,South,180,4.0,8.1,74,0.00,CLR,,0.01,WeatherDisplay:10.37,2013-10-19 00:40:00,
2013-10-18 20:45:00,50.5,42.9,29.94,South,180,3.3,5.8,75,0.00,CLR,,0.01,WeatherDisplay:10.37,2013-10-19 00:45:00,
2013-10-18 20:50:00,50.5,42.9,29.94,South,180,4.7,7.4,75,0.00,CLR,,0.01,WeatherDisplay:10.37,2013-10-19 00:50:00,
2013-10-18 20:55:00,50.5,42.9,29.94,South,180,7.4,7.4,75,0.00,CLR,,0.01,WeatherDisplay:10.37,2013-10-19 00:55:00,
2013-10-18 21:00:00,50.5,43.3,29.94,South,180,4.0,5.8,76,0.00,CLR,,0.01,WeatherDisplay:10.37,2013-10-19 01:00:00,
2013-10-18 21:05:00,50.5,43.3,29.94,South,180,1.7,10.4,76,0.00,CLR,,0.01,WeatherDisplay:10.37,2013-10-19 01:05:00,
2013-10-18 21:10:00,50.5,43.3,29.95,South,180,5.7,9.2,76,0.00,CLR,,0.01,WeatherDisplay:10.37,2013-10-19 01:10:00,
2013-10-18 21:16:00,50.5,42.9,29.94,South,180,4.7,9.2,75,0.00,CLR,,0.01,WeatherDisplay:10.37,2013-10-19 01:16:00,
2013-10-18 21:21:00,50.5,42.9,29.95,South,180,4.0,6.9,75,0.00,CLR,,0.01,WeatherDisplay:10.37,2013-10-19 01:21:00,
2013-10-18 21:26:00,50.5,42.9,29.95,South,180,3.3,8.1,75,0.00,CLR,,0.01,WeatherDisplay:10.37,2013-10-19 01:26:00,
2013-10-18 21:31:00,50.7,43.4,29.95,South,180,5.7,8.1,76,0.00,CLR,,0.01,WeatherDisplay:10.37,2013-10-19 01:31:00,
2013-10-18 21:36:00,50.5,43.3,29.95,South,180,4.7,11.5,76,0.00,CLR,,0.01,WeatherDisplay:10.37,2013-10-19 01:36:00,
2013-10-18 21:41:00,50.5,43.3,29.95,South,180,3.3,6.9,76,0.00,CLR,,0.01,WeatherDisplay:10.37,2013-10-19 01:41:00,
2013-10-18 21:46:00,50.5,43.3,29.95,South,180,5.7,9.2,76,0.00,CLR,,0.01,WeatherDisplay:10.37,2013-10-19 01:46:00,
2013-10-18 21:51:00,50.5,43.3,29.95,South,180,5.7,11.5,76,0.00,CLR,,0.01,WeatherDisplay:10.37,2013-10-19 01:51:00,
2013-10-18 21:56:00,50.4,42.7,29.95,South,180,7.4,12.7,75,0.00,CLR,,0.01,WeatherDisplay:10.37,2013-10-19 01:56:00,
2013-10-18 22:01:00,50.4,42.7,29.96,South,180,4.0,6.9,75,0.00,CLR,,0.01,WeatherDisplay:10.37,2013-10-19 02:01:00,
2013-10-18 22:06:00,50.4,42.7,29.96,South,180,4.0,6.9,75,0.00,CLR,,0.01,WeatherDisplay:10.37,2013-10-19 02:06:00,
2013-10-18 22:11:00,50.4,42.7,29.96,SW,225,6.4,15.0,75,0.00,CLR,,0.01,WeatherDisplay:10.37,2013-10-19 02:11:00,
2013-10-18 22:16:00,50.4,42.7,29.96,SW,225,7.4,9.2,75,0.00,CLR,,0.01,WeatherDisplay:10.37,2013-10-19 02:16:00,
2013-10-18 22:21:00,50.2,42.6,29.95,SW,225,4.0,9.2,75,0.00,CLR,,0.01,WeatherDisplay:10.37,2013-10-19 02:21:00,
2013-10-18 22:26:00,50.2,42.6,29.95,SW,225,7.4,10.4,75,0.00,CLR,,0.01,WeatherDisplay:10.37,2013-10-19 02:26:00,
2013-10-18 22:31:00,50.0,42.4,29.95,SW,225,4.7,9.2,75,0.00,CLR,,0.01,WeatherDisplay:10.37,2013-10-19 02:31:00,
2013-10-18 22:36:00,49.8,42.2,29.95,SW,225,0.7,9.2,75,0.00,CLR,,0.01,WeatherDisplay:10.37,2013-10-19 02:36:00,
2013-10-18 22:41:00,49.8,42.2,29.95,NW,315,1.7,6.9,75,0.00,CLR,,0.01,WeatherDisplay:10.37,2013-10-19 02:41:00,
2013-10-18 22:46:00,49.8,41.9,29.95,SW,225,5.7,12.7,74,0.00,CLR,,0.01,WeatherDisplay:10.37,2013-10-19 02:46:00,
2013-10-18 22:51:00,49.8,42.2,29.94,West,270,4.7,9.2,75,0.00,CLR,,0.01,WeatherDisplay:10.37,2013-10-19 02:51:00,
2013-10-18 22:56:00,49.8,42.2,29.93,West,270,7.4,7.4,75,0.00,CLR,,0.01,WeatherDisplay:10.37,2013-10-19 02:56:00,
2013-10-18 23:01:00,49.8,41.9,29.93,SW,225,3.3,10.4,74,0.00,CLR,,0.01,WeatherDisplay:10.37,2013-10-19 03:01:00,
2013-10-18 23:06:00,49.8,42.2,29.93,SW,225,2.4,4.6,75,0.00,CLR,,0.01,WeatherDisplay:10.37,2013-10-19 03:06:00,
2013-10-18 23:11:00,49.6,42.0,29.93,SW,225,5.7,9.2,75,0.00,CLR,,0.01,WeatherDisplay:10.37,2013-10-19 03:11:00,
2013-10-18 23:16:00,49.6,42.0,29.93,SW,225,5.7,9.2,75,0.00,CLR,,0.01,WeatherDisplay:10.37,2013-10-19 03:16:00,
2013-10-18 23:21:00,49.6,42.0,29.93,SW,225,5.7,13.8,75,0.00,CLR,,0.01,WeatherDisplay:10.37,2013-10-19 03:21:00,
2013-10-18 23:26:00,49.6,42.0,29.93,SW,225,2.4,9.2,75,0.00,CLR,,0.01,WeatherDisplay:10.37,2013-10-19 03:26:00,
2013-10-18 23:31:00,49.6,42.0,29.92,SW,225,3.3,8.1,75,0.00,CLR,,0.01,WeatherDisplay:10.37,2013-10-19 03:31:00,
2013-10-18 23:36:00,49.6,42.0,29.91,West,270,5.7,8.1,75,0.00,CLR,,0.01,WeatherDisplay:10.37,2013-10-19 03:36:00,
2013-10-18 23:41:00,49.6,42.0,29.92,WSW,248,1.7,6.9,75,0.00,CLR,,0.01,WeatherDisplay:10.37,2013-10-19 03:41:00,
2013-10-18 23:46:00,49.6,42.0,29.91,SW,225,5.7,9.2,75,0.00,CLR,,0.01,WeatherDisplay:10.37,2013-10-19 03:46:00,
2013-10-18 23:51:00,49.6,42.0,29.91,West,270,5.7,9.2,75,0.00,CLR,,0.01,WeatherDisplay:10.37,2013-10-19 03:51:00,
2013-10-18 23:56:00,49.6,42.0,29.91,South,180,5.7,6.9,75,0.00,CLR,,0.01,WeatherDisplay:10.37,2013-10-19 03:56:00,